TimeAKST,TemperatureF,Dew PointF,Humidity,Sea Level PressureIn,VisibilityMPH,Wind Direction,Wind SpeedMPH,Gust SpeedMPH,PrecipitationIn,Events,Conditions,WindDirDegrees,DateUTC
12:25 AM,41.0,39.2,93,29.35,10.0,Calm,Calm,-,0.01,Rain,Light Rain,0,2012-11-29 09:25:00
12:53 AM,41.0,39.9,96,29.35,10.0,Calm,Calm,-,0.01,Rain,Light Rain,0,2012-11-29 09:53:00
1:02 AM,41.0,39.2,93,29.34,10.0,Calm,Calm,-,0.01,Rain,Light Rain,0,2012-11-29 10:02:00
1:50 AM,41.0,39.2,93,29.33,10.0,Calm,Calm,-,0.02,Rain,Light Rain,0,2012-11-29 10:50:00
1:53 AM,41.0,39.9,96,29.33,10.0,Calm,Calm,-,0.02,Rain,Light Rain,0,2012-11-29 10:53:00
2:53 AM,41.0,39.9,96,29.32,7.0,Calm,Calm,-,0.05,Rain,Light Rain,0,2012-11-29 11:53:00
3:53 AM,39.9,39.9,100,29.31,8.0,Calm,Calm,-,0.07,Rain,Light Rain,0,2012-11-29 12:53:00
4:53 AM,39.9,39.0,97,29.28,9.0,NNW,4.6,-,0.07,Rain,Light Rain,330,2012-11-29 13:53:00
5:41 AM,39.2,39.2,100,29.26,5.0,WNW,3.5,-,0.05,Rain,Light Rain,300,2012-11-29 14:41:00
5:53 AM,39.9,39.0,97,29.26,6.0,WNW,3.5,-,0.07,Rain,Light Rain,290,2012-11-29 14:53:00
6:06 AM,39.2,39.2,100,29.25,5.0,NW,3.5,-,0.02,Rain,Rain,310,2012-11-29 15:06:00
6:14 AM,39.2,39.2,100,29.25,7.0,Calm,Calm,-,0.03,Rain,Light Rain,0,2012-11-29 15:14:00
6:53 AM,39.9,39.0,97,29.24,10.0,Calm,Calm,-,0.04,Rain,Light Rain,0,2012-11-29 15:53:00
7:53 AM,39.9,39.0,97,29.24,10.0,Calm,Calm,-,0.05,Rain,Light Rain,0,2012-11-29 16:53:00
8:53 AM,39.9,39.0,97,29.25,10.0,Calm,Calm,-,0.01,,Overcast,0,2012-11-29 17:53:00
9:53 AM,42.1,37.9,85,29.26,10.0,South,5.8,-,0.00,,Overcast,170,2012-11-29 18:53:00
10:53 AM,43.0,37.9,82,29.26,10.0,Calm,Calm,-,0.00,,Overcast,0,2012-11-29 19:53:00
11:53 AM,42.1,37.9,85,29.27,10.0,South,5.8,-,0.02,Rain,Light Rain,180,2012-11-29 20:53:00
12:53 PM,41.0,37.9,89,29.28,10.0,South,4.6,-,0.02,,Overcast,190,2012-11-29 21:53:00
1:53 PM,41.0,37.9,89,29.29,4.0,South,5.8,-,0.01,Rain,Light Rain,170,2012-11-29 22:53:00
2:53 PM,41.0,37.9,89,29.29,10.0,South,4.6,-,0.00,,Overcast,190,2012-11-29 23:53:00
3:53 PM,39.9,37.9,93,29.28,10.0,Calm,Calm,-,0.00,,Overcast,0,2012-11-30 00:53:00
4:53 PM,39.9,37.0,89,29.27,10.0,Calm,Calm,-,N/A,,Overcast,0,2012-11-30 01:53:00
5:53 PM,39.0,37.9,96,29.27,10.0,Calm,Calm,-,0.00,Rain,Light Rain,0,2012-11-30 02:53:00
6:44 PM,39.2,37.4,93,29.28,6.0,WNW,3.5,-,0.07,Rain,Light Rain,290,2012-11-30 03:44:00
6:53 PM,39.0,39.0,100,29.29,5.0,West,3.5,-,0.09,Rain,Rain,260,2012-11-30 03:53:00
7:53 PM,39.9,37.9,93,29.29,10.0,Calm,Calm,-,0.11,Rain,Light Rain,0,2012-11-30 04:53:00
8:53 PM,39.0,37.9,96,29.30,7.0,Calm,Calm,-,0.03,Rain,Light Rain,0,2012-11-30 05:53:00
8:54 PM,39.2,37.4,93,29.29,8.0,Calm,Calm,-,0.00,Rain,Light Rain,0,2012-11-30 05:54:00
9:16 PM,39.2,37.4,93,29.29,10.0,Calm,Calm,-,0.00,Rain,Light Rain,0,2012-11-30 06:16:00
9:28 PM,39.2,37.4,93,29.29,5.0,Calm,Calm,-,0.01,Rain,Light Rain,0,2012-11-30 06:28:00
9:40 PM,39.2,37.4,93,29.29,4.0,Calm,Calm,-,0.01,Rain,Light Rain,0,2012-11-30 06:40:00
9:53 PM,39.0,39.0,100,29.29,4.0,Calm,Calm,-,0.03,Rain,Light Rain,0,2012-11-30 06:53:00
10:19 PM,39.2,37.4,93,29.29,4.0,Calm,Calm,-,0.03,Rain,Light Rain,0,2012-11-30 07:19:00
10:38 PM,39.2,39.2,100,29.29,4.0,Calm,Calm,-,0.05,Rain,Light Rain,0,2012-11-30 07:38:00
10:53 PM,39.0,39.0,100,29.29,6.0,Calm,Calm,-,0.08,Rain,Light Rain,0,2012-11-30 07:53:00
11:36 PM,39.2,39.2,100,29.29,6.0,Calm,Calm,-,0.07,Rain,Rain,0,2012-11-30 08:36:00
11:53 PM,39.0,39.0,100,29.29,5.0,Calm,Calm,-,0.11,Rain,Rain,0,2012-11-30 08:53:00